DateTimeUTC,F1_A11,F1_S11,BsB_S11,BsG_S11,BsR_S11,BbsB_S11,BbsG_S11,BbsR_S11,BaB_A11,BaG_A11,BaR_A11,Tu_S11,T_S11,Uu_S11,U_S11,P_S11,T1_A11
2021-06-24T06:00:00Z,00000200,20000000,,,,,,,0000.06,-000.02,-000.09,17.8,24.7,05.7,03.7,0673.3,31.1
2021-06-24T06:01:00Z,00000200,20000000,,,,,,,-000.08,0000.14,0000.03,17.8,24.7,05.6,03.7,0673.2,31.1
2021-06-24T06:02:00Z,00000200,20000000,,,,,,,-000.02,-000.14,-000.12,17.9,24.7,05.6,03.7,0673.2,31.1
2021-06-24T06:03:00Z,00000200,60000000,,,,,,,0000.36,0000.23,0000.09,17.9,24.7,05.6,03.7,0673.2,31.1
2021-06-24T06:04:00Z,00000200,40000000,0001.90,0000.87,0000.72,0000.26,0000.21,0000.49,0000.48,0000.38,0000.32,18.0,24.6,05.8,03.9,0674.1,31.1
2021-06-24T06:05:00Z,00000200,00000000,0001.04,0001.02,0000.79,0000.46,0000.22,0000.67,0000.23,0000.43,0000.27,18.0,24.5,06.0,04.0,0674.2,31.1
2021-06-24T06:06:00Z,00000200,00000000,0001.15,0000.98,0000.59,0000.19,0000.03,0000.27,0000.54,0000.52,0000.15,18.0,24.5,06.1,04.1,0674.1,31.1
2021-06-24T06:07:00Z,00000200,00000000,0001.44,0001.01,0000.72,0000.48,0000.17,-000.04,0000.31,-000.08,0000.30,17.9,24.4,06.1,04.1,0674.2,31.1
2021-06-24T06:08:00Z,00000200,00000000,0001.74,0001.12,0000.99,0000.29,-000.21,0000.63,0000.44,0000.56,0000.15,17.9,24.4,06.0,04.0,0674.1,31.0
2021-06-24T06:09:00Z,00000200,00000000,0001.49,0001.19,0000.91,0000.50,0000.18,0000.40,0000.25,0000.03,0000.30,17.9,24.4,06.0,04.0,0674.1,31.0
2021-06-24T06:10:00Z,00000200,00000000,0002.01,0001.15,0000.65,0000.79,0000.04,0000.04,0000.51,0000.22,0000.28,17.9,24.3,06.2,04.1,0674.2,31.0
2021-06-24T06:11:00Z,00000200,00000000,0000.75,0001.02,0000.76,0000.19,0000.36,0000.15,0000.19,0000.27,0000.19,17.9,24.3,06.1,04.1,0674.2,31.0
2021-06-24T06:12:00Z,00000200,00000000,0001.72,0000.95,0000.65,0000.34,0000.07,0000.15,0000.33,0000.61,0000.29,17.9,24.4,06.1,04.1,0674.1,31.0
2021-06-24T06:13:00Z,00000200,00000000,0001.50,0001.10,0000.45,0000.03,0000.12,0000.14,0000.46,0000.20,0000.41,17.9,24.4,06.0,04.1,0674.1,31.1
2021-06-24T06:14:00Z,00000200,00000000,0001.52,0001.05,0000.77,0000.50,-000.13,0000.14,0000.35,0000.53,0000.33,18.0,24.4,06.2,04.2,0674.0,31.1
2021-06-24T06:15:00Z,00000200,00000000,0001.29,0001.00,0000.58,0000.71,0000.26,0000.33,0000.45,0000.46,0000.14,18.1,24.5,06.1,04.1,0674.1,31.1
2021-06-24T06:16:00Z,00000200,00000000,0001.80,0001.22,0000.59,0000.42,0000.09,0000.05,0000.43,0000.66,0000.30,18.2,24.5,06.2,04.2,0674.1,31.1
2021-06-24T06:17:00Z,00000200,00000000,0001.91,0001.32,0000.74,0000.69,0000.10,0000.53,0000.39,0000.33,0000.10,18.2,24.5,06.1,04.2,0674.1,31.1
2021-06-24T06:18:00Z,00000200,00000000,0001.69,0001.38,0000.81,0000.15,0000.06,0000.47,0000.31,0000.08,0000.33,18.2,24.6,06.1,04.1,0674.1,31.1
2021-06-24T06:19:00Z,00000200,00000000,0001.46,0001.04,0000.81,0000.81,0000.09,0000.34,0000.06,0000.08,0000.12,18.2,24.6,06.2,04.2,0674.1,31.1
2021-06-24T06:20:00Z,00000200,00000000,0001.45,0001.04,0000.98,0000.20,0000.00,0000.40,0000.58,0000.21,0000.60,18.2,24.5,06.2,04.2,0674.0,31.1
2021-06-24T06:21:00Z,00000200,00000000,0000.92,0001.12,0000.91,0000.05,0000.10,0000.15,0000.14,0000.76,-000.25,18.2,24.5,06.1,04.2,0674.0,31.1
2021-06-24T06:22:00Z,00000200,00000000,0001.62,0001.02,0000.74,0000.80,0000.13,0000.07,0000.48,-000.13,0000.58,18.2,24.5,06.3,04.3,0674.0,31.1
2021-06-24T06:23:00Z,00000200,00000000,0001.28,0000.60,0000.79,0000.22,0000.34,0000.42,0000.50,0000.44,0000.23,18.1,24.5,06.4,04.3,0674.0,31.1
2021-06-24T06:24:00Z,00000200,00000000,0001.49,0001.14,0000.73,0000.75,0000.19,0000.25,-000.12,0000.60,-000.13,18.1,24.5,06.4,04.3,0674.0,31.1
2021-06-24T06:25:00Z,00000200,00000000,0001.33,0001.00,0000.56,-000.27,0000.01,0000.09,0000.80,0000.08,0000.57,18.1,24.5,06.4,04.3,0674.0,31.1
2021-06-24T06:26:00Z,00000200,00000000,0001.62,0001.42,0000.78,0000.44,0000.41,0000.67,0000.38,0000.48,0000.22,18.1,24.5,06.4,04.3,0674.0,31.1
2021-06-24T06:27:00Z,00000200,00000000,0001.34,0001.29,0000.39,0000.77,0000.18,0000.17,0000.56,0000.54,0000.32,18.1,24.5,06.4,04.3,0674.0,31.1
2021-06-24T06:28:00Z,00000200,00000000,0001.49,0001.02,0000.64,-000.09,0000.14,0000.17,0000.21,0000.11,0000.36,18.2,24.5,06.3,04.3,0674.0,31.1
2021-06-24T06:29:00Z,00000200,00000000,0001.21,0000.79,0000.96,0000.21,0000.04,0000.07,0000.49,0000.32,-000.09,18.2,24.5,06.4,04.3,0674.1,31.1
2021-06-24T06:30:00Z,00000200,00000000,0001.18,0000.74,0000.60,0000.74,0000.21,0000.24,0000.23,0000.31,0000.36,18.2,24.6,06.4,04.3,0674.1,31.1
2021-06-24T06:31:00Z,00000200,00000000,0001.33,0001.40,0000.81,0000.23,0000.04,0000.41,0000.43,0000.53,0000.27,18.2,24.5,06.4,04.4,0674.1,31.1
2021-06-24T06:32:00Z,00000200,00000000,0002.26,0001.16,0000.90,0000.04,0000.06,0000.42,0000.32,-000.05,0000.06,18.2,24.5,06.4,04.3,0674.0,31.1
2021-06-24T06:33:00Z,00000200,00000000,0001.85,0001.24,0000.48,0000.44,0000.27,0000.32,0000.17,0000.44,0000.44,18.2,24.5,06.4,04.4,0674.1,31.1
2021-06-24T06:34:00Z,00000200,00000000,0001.70,0001.12,0000.72,-000.01,0000.30,0000.27,0000.46,0000.35,0000.07,18.2,24.5,06.4,04.3,0674.0,31.1
2021-06-24T06:35:00Z,00000200,00000000,0001.59,0001.13,0000.77,0000.43,0000.12,0000.21,0000.16,0000.54,0000.43,18.1,24.5,06.4,04.3,0674.0,31.1
2021-06-24T06:36:00Z,00000200,00000000,0001.43,0001.11,0000.95,0000.55,-000.02,0000.37,0000.65,0000.27,0000.17,18.1,24.5,06.4,04.3,0674.1,31.1
2021-06-24T06:37:00Z,00000200,00000000,0001.69,0001.31,0000.78,0000.14,0000.14,0000.20,0000.20,-000.04,0000.10,18.1,24.4,06.5,04.4,0674.1,31.1
2021-06-24T06:38:00Z,00000200,00000000,0001.47,0001.01,0001.03,0000.54,0000.20,0000.29,0000.47,0000.36,0000.19,18.0,24.4,06.5,04.4,0674.1,31.1
2021-06-24T06:39:00Z,00000200,00000000,0001.95,0001.07,0000.76,0000.40,0000.20,0000.19,0000.43,0000.26,0000.54,18.0,24.4,06.5,04.4,0674.1,31.1
2021-06-24T06:40:00Z,00000200,00000000,0002.14,0001.07,0000.81,0000.49,0000.16,0000.06,0000.41,0000.74,0000.11,18.0,24.4,06.6,04.5,0674.1,31.0
2021-06-24T06:41:00Z,00000200,00000000,0002.12,0001.24,0000.48,0000.61,0000.21,0000.29,0000.38,0000.31,0000.51,18.0,24.4,06.5,04.4,0674.1,31.0
2021-06-24T06:42:00Z,00000200,00000000,0001.66,0000.87,0000.71,0000.59,-000.15,0000.18,0000.52,0000.33,0000.45,18.0,24.4,06.6,04.4,0674.1,31.1
2021-06-24T06:43:00Z,00000200,00000000,0001.20,0001.09,0001.14,0000.22,0000.19,0000.22,0000.35,0000.13,0000.18,18.1,24.4,06.5,04.4,0674.1,31.1
2021-06-24T06:44:00Z,00000200,00000000,0001.50,0001.03,0000.81,-000.25,0000.16,0000.17,0000.22,0000.36,0000.02,18.1,24.5,06.6,04.5,0674.1,31.1
2021-06-24T06:45:00Z,00000200,00000000,0001.59,0001.00,0000.82,0000.82,0000.19,0000.17,0000.56,0000.71,0000.23,18.2,24.5,06.5,04.4,0674.1,31.1
2021-06-24T06:46:00Z,00000200,00000000,0001.56,0001.09,0000.87,0000.29,0000.17,0000.27,0000.31,0000.13,0000.15,18.2,24.5,06.5,04.4,0674.1,31.1
2021-06-24T06:47:00Z,00000200,00000000,0001.43,0001.28,0000.75,0000.43,0000.10,0000.38,0000.09,0000.02,0000.00,18.2,24.5,06.5,04.4,0674.1,31.1
2021-06-24T06:48:00Z,00000200,00000000,0001.53,0001.43,0000.95,0000.72,0000.05,0000.25,0000.59,0000.71,0000.31,18.1,24.5,06.5,04.4,0674.1,31.1
2021-06-24T06:49:00Z,00000200,00000000,0000.65,0001.19,0000.70,0000.26,0000.31,-000.04,0000.23,0000.02,0000.57,18.1,24.5,06.5,04.4,0674.1,31.1
2021-06-24T06:50:00Z,00000200,00000000,0001.74,0001.06,0000.88,0000.04,0000.35,0000.33,0000.18,0000.54,-000.05,18.1,24.4,06.5,04.4,0674.1,31.0
2021-06-24T06:51:00Z,00000200,00000000,0001.18,0001.17,0000.65,-000.05,-000.01,0000.18,0000.59,0000.24,0000.31,18.1,24.4,06.6,04.5,0674.1,31.1
2021-06-24T06:52:00Z,00000200,00000000,0001.66,0000.93,0000.72,0000.45,0000.19,0000.65,0000.30,0000.30,0000.18,18.0,24.4,06.6,04.5,0674.1,31.1
2021-06-24T06:53:00Z,00000200,00000000,0001.26,0001.18,0000.57,0000.15,0000.24,0000.10,0000.14,0000.20,0000.49,18.0,24.4,06.6,04.4,0674.1,31.1
2021-06-24T06:54:00Z,00000200,00000000,0002.07,0001.11,0000.43,0000.36,0000.15,0000.09,0000.55,0000.28,0000.01,18.0,24.4,06.6,04.5,0674.1,31.0
2021-06-24T06:55:00Z,00000200,00000000,0001.91,0001.04,0000.63,0000.06,0000.42,0000.30,0000.33,0000.32,0000.53,18.0,24.3,06.6,04.5,0674.1,31.0
2021-06-24T06:56:00Z,00000200,00000000,0002.14,0001.49,0000.74,0000.86,0000.04,0000.32,0000.30,0000.16,0000.13,18.0,24.3,06.6,04.5,0674.2,31.1
2021-06-24T06:57:00Z,00000200,40000000,,,,,,,0000.29,0000.34,-000.02,18.0,24.4,06.5,04.4,0674.2,31.1
2021-06-24T06:58:00Z,00000200,60000000,,,,,,,-000.13,-000.11,0000.15,17.9,24.5,06.5,04.3,0673.2,31.1
2021-06-24T06:59:00Z,00000200,20000000,,,,,,,0000.12,0000.12,-000.11,17.9,24.6,06.5,04.3,0673.2,31.1
